STARLINK-1735 (46565 NORAD) Tracking and Keplerian Element Data

This shows tracking and keplerian element data for the satellite.

Feedback or suggestion? Click here.




ElementValue
Catalog46565
NameSTARLINK-1735
Epoch Orbit935
Epoch Day336.91667824
Epoch Year2020
RAAN165.1983
Inclination52.9999
Eccentricity0.0002056
Argument of Perigee26.2168
Mean Anonmoly25.7894
Mean Motion15.62728409
Decay Rate0.00050876
L11 46565U 20070AK 20336.91667824 .00050876 00000-0 55848-3 0 9991
L22 46565 52.9999 165.1983 0002056 26.2168 25.7894 15.62728409 9358

Live tracking and technical data element details for STARLINK-1735 (NORAD 46565). STARLINK-1735 can be tracked NOW for your location showing map with azimuth and elevation plus other details from your city location.

Track the satellite on the map from your city or location and see movement details for azimuth, elevation, latitude, longitude, range, height, and movement on the map or in text.







IsCatalogInMostPopularTable: catalog: 46565, numindb: 15
Update: records affected: 1



GetName: 46565 STARLINK-1735

Hit Count: updated at: Wed, 02 Dec 2020 19:28:11 GMT